This demonstration page uses our WeatherBlox Daily Observations layout. Learn more.

Left ArrowRight Arrow

Hourly Observations for November 7, 2018

Temp ( °F °C ) Dew Point ( °F °C ) Humidity (%) Winds ( mph kmh ) Pressure ( in mb ) Visibility ( mi km ) Precip ( " mm )
12:53 am 00:53 Clear 47 8.3 41 5 80 80 WSW 7 11 30.06 1018 10 16 0.00 0.00
1:53 am 01:53 Clear 46 7.8 40 4.4 79 79 WSW 6 9 30.06 1018 10 16 0.00 0.00
2:53 am 02:53 Clear 43 6.1 39 3.9 86 86 Calm 30.09 1019 10 16 0.00 0.00
3:53 am 03:53 Partly Cloudy 45 7.2 40 4.4 83 83 WNW 10 17 30.11 1020 10 16 0.00 0.00
4:53 am 04:53 Clear 42 5.6 37 2.8 82 82 WNW 3 6 30.11 1020 10 16 0.00 0.00
5:53 am 05:53 Clear 38 3.3 34 1.1 86 86 Calm 30.12 1020 10 16 0.00 0.00
6:53 am 06:53 Clear 37 2.8 34 1.1 89 89 Calm 30.14 1021 10 16 0.00 0.00
7:53 am 07:53 Sunny 38 3.3 36 2.2 93 93 Calm 30.17 1022 10 16 0.00 0.00
8:53 am 08:53 Sunny 43 6.1 37 2.8 80 80 W 5 7 30.19 1022 10 16 0.00 0.00
9:53 am 09:53 Sunny 45 7.2 35 1.7 68 68 W 5 7 30.18 1022 10 16 0.00 0.00
10:53 am 10:53 Sunny 46 7.8 31 -0.6 56 56 W 9 15 30.20 1023 10 16 0.00 0.00
11:53 am 11:53 Sunny 49 9.4 32 0 52 52 WSW 8 13 30.20 1023 10 16 0.00 0.00
12:53 pm 12:53 Sunny 51 10.6 31 -0.6 46 46 WSW 9 15 30.17 1022 10 16 0.00 0.00
1:53 pm 13:53 Sunny 53 11.7 31 -0.6 43 43 SW 9 15 30.16 1021 10 16 0.00 0.00
2:53 pm 14:53 Sunny 53 11.7 31 -0.6 43 43 W 9 15 30.16 1021 10 16 0.00 0.00
3:53 pm 15:53 Sunny 53 11.7 31 -0.6 43 43 WSW 8 13 30.16 1021 10 16 0.00 0.00
4:53 pm 16:53 Sunny 52 11.1 30 -1.1 43 43 W 7 11 30.17 1022 10 16 0.00 0.00
5:53 pm 17:53 Clear 44 6.7 33 0.6 65 65 NW 3 6 30.19 1022 10 16 0.00 0.00
6:53 pm 18:53 Clear 42 5.6 33 0.6 71 71 NW 5 7 30.21 1023 10 16 0.00 0.00
7:53 pm 19:53 Clear 38 3.3 34 1.1 86 86 Calm 30.22 1023 10 16 0.00 0.00
8:53 pm 20:53 Clear 35 1.7 31 -0.6 85 85 Calm 30.24 1024 10 16 0.00 0.00
9:53 pm 21:53 Clear 39 3.9 31 -0.6 73 73 N 3 6 30.26 1025 10 16 0.00 0.00
10:53 pm 22:53 Clear 37 2.8 31 -0.6 79 79 NNW 5 7 30.27 1025 10 16 0.00 0.00
11:53 pm 23:53 Clear 35 1.7 30 -1.1 82 82 N 3 6 30.30 1026 10 16 0.00 0.00

Powered by AerisWeather